When you browse on this site, cookies collect data to enhance your experience and personalize the content and advertising you see.
Visit our Privacy Policy to learn more. By continuing to use the site, you agree to this use of cookies and data.
  • în România
  • Lista ţărilor
  • Pe 7 zile
  • Temperatura apei
  • Hartă satelitară
  • Meteo pe hartă
  • Widget-uri
  • user-avatar
    Intrare

    Meteo pe oră la Prilipki

    Astăzi, 24 Martie, Duminică

    Timp Temperatura Precipitaţii Vânt Presiune Umiditate
    00:00 -1°C° 0 mm 3 m/s 750 mmHg 94%
    01:00 -2°C° 0 mm 2 m/s 750 mmHg 94%
    02:00 -3°C° 0 mm 2 m/s 749 mmHg 94%
    03:00 -4°C° 0 mm 2 m/s 749 mmHg 96%
    04:00 -3°C° 0 mm 1 m/s 749 mmHg 96%
    05:00 -3°C° 0 mm 1 m/s 749 mmHg 97%
    06:00 -5°C° 0 mm 0 m/s 748 mmHg 97%
    07:00 -3°C° 0 mm 1 m/s 748 mmHg 97%
    08:00 -2°C° 0 mm 1 m/s 748 mmHg 96%
    09:00 0°C° 0 mm 1 m/s 747 mmHg 96%
    10:00 -2°C° 0 mm 2 m/s 747 mmHg 97%
    11:00 -1°C° 0 mm 2 m/s 746 mmHg 98%
    12:00 -1°C° 0 mm 2 m/s 746 mmHg 99%
    13:00 -1°C° 0.1 mm 3 m/s 745 mmHg 99%
    14:00 -1°C° 0.1 mm 3 m/s 745 mmHg 99%
    15:00 -1°C° 0.1 mm 4 m/s 744 mmHg 99%
    16:00 -1°C° 0.3 mm 4 m/s 744 mmHg 97%
    17:00 -1°C° 0.3 mm 4 m/s 743 mmHg 96%
    18:00 -1°C° 0.3 mm 5 m/s 743 mmHg 94%
    19:00 -1°C° 0.2 mm 4 m/s 743 mmHg 95%
    20:00 -1°C° 0.2 mm 4 m/s 742 mmHg 95%
    21:00 -1°C° 0.2 mm 3 m/s 742 mmHg 96%
    22:00 -2°C° 0 mm 4 m/s 742 mmHg 94%
    23:00 -3°C° 0 mm 4 m/s 742 mmHg 92%

    Mâine, 25 Martie, Luni

    Timp Temperatura Precipitaţii Vânt Presiune Umiditate
    00:00 -4°C° 0 mm 4 m/s 741 mmHg 90%
    01:00 -4°C° 0 mm 4 m/s 742 mmHg 90%
    02:00 -4°C° 0 mm 4 m/s 742 mmHg 89%
    03:00 -5°C° 0 mm 4 m/s 742 mmHg 89%
    04:00 -5°C° 0 mm 4 m/s 742 mmHg 89%
    05:00 -5°C° 0 mm 4 m/s 742 mmHg 90%
    06:00 -5°C° 0 mm 4 m/s 742 mmHg 90%
    07:00 -5°C° 0 mm 4 m/s 742 mmHg 90%
    08:00 -5°C° 0 mm 5 m/s 742 mmHg 89%
    09:00 -5°C° 0 mm 5 m/s 743 mmHg 89%
    10:00 -3°C° 0 mm 4 m/s 743 mmHg 90%
    11:00 -2°C° 0 mm 4 m/s 743 mmHg 91%
    12:00 -1°C° 0 mm 4 m/s 743 mmHg 92%
    13:00 -1°C° 0 mm 4 m/s 743 mmHg 94%
    14:00 -1°C° 0 mm 4 m/s 743 mmHg 95%
    15:00 -1°C° 0 mm 4 m/s 743 mmHg 96%
    16:00 -1°C° 0 mm 4 m/s 743 mmHg 93%
    17:00 -1°C° 0 mm 3 m/s 744 mmHg 91%
    18:00 -1°C° 0 mm 3 m/s 744 mmHg 89%
    19:00 -2°C° 0 mm 3 m/s 744 mmHg 88%
    20:00 -2°C° 0 mm 3 m/s 744 mmHg 88%
    21:00 -4°C° 0 mm 3 m/s 744 mmHg 87%
    22:00 -4°C° 0 mm 3 m/s 744 mmHg 86%
    23:00 -4°C° 0 mm 3 m/s 744 mmHg 85%

    Poimâine, 26 Martie, Marţi

    Timp Temperatura Precipitaţii Vânt Presiune Umiditate
    00:00 -4°C° 0 mm 3 m/s 744 mmHg 84%
    01:00 -4°C° 0 mm 3 m/s 744 mmHg 84%
    02:00 -4°C° 0 mm 3 m/s 744 mmHg 85%
    03:00 -4°C° 0 mm 3 m/s 744 mmHg 85%
    04:00 -4°C° 0 mm 4 m/s 743 mmHg 86%
    05:00 -3°C° 0 mm 4 m/s 743 mmHg 87%
    06:00 -3°C° 0 mm 4 m/s 743 mmHg 88%
    07:00 -2°C° 0.2 mm 4 m/s 742 mmHg 89%
    08:00 -2°C° 0.2 mm 4 m/s 742 mmHg 89%
    09:00 -1°C° 0.2 mm 4 m/s 742 mmHg 90%
    10:00 0°C° 0.1 mm 3 m/s 741 mmHg 93%
    11:00 0°C° 0.1 mm 3 m/s 741 mmHg 96%
    12:00 0°C° 0.1 mm 3 m/s 741 mmHg 99%
    13:00 0°C° 0 mm 3 m/s 740 mmHg 99%
    14:00 0°C° 0 mm 3 m/s 740 mmHg 99%
    15:00 0°C° 0 mm 4 m/s 739 mmHg 99%
    16:00 0°C° 0.1 mm 4 m/s 739 mmHg 98%
    17:00 0°C° 0.1 mm 4 m/s 739 mmHg 98%
    18:00 0°C° 0.1 mm 5 m/s 739 mmHg 97%
    19:00 -1°C° 0 mm 5 m/s 739 mmHg 94%
    20:00 -2°C° 0 mm 4 m/s 739 mmHg 92%
    21:00 -2°C° 0 mm 4 m/s 739 mmHg 89%
    22:00 -3°C° 0 mm 4 m/s 740 mmHg 89%
    23:00 -3°C° 0 mm 4 m/s 740 mmHg 88%

    27 Martie, Miercuri

    Timp Temperatura Precipitaţii Vânt Presiune Umiditate
    00:00 -4°C° 0 mm 4 m/s 740 mmHg 88%
    01:00 -4°C° 0 mm 4 m/s 741 mmHg 88%
    02:00 -5°C° 0 mm 4 m/s 741 mmHg 88%
    03:00 -5°C° 0 mm 3 m/s 741 mmHg 87%
    04:00 -6°C° 0 mm 3 m/s 742 mmHg 87%
    05:00 -5°C° 0 mm 2 m/s 742 mmHg 87%
    06:00 -5°C° 0 mm 2 m/s 742 mmHg 87%
    07:00 -5°C° 0 mm 2 m/s 743 mmHg 87%
    08:00 -4°C° 0 mm 2 m/s 743 mmHg 86%
    09:00 -1°C° 0 mm 1 m/s 743 mmHg 86%
    10:00 -2°C° 0 mm 2 m/s 744 mmHg 85%
    11:00 -2°C° 0 mm 2 m/s 744 mmHg 85%
    12:00 -1°C° 0 mm 2 m/s 744 mmHg 84%
    13:00 -1°C° 0 mm 2 m/s 744 mmHg 83%
    14:00 +1°C° 0 mm 2 m/s 744 mmHg 82%
    15:00 +1°C° 0 mm 2 m/s 744 mmHg 81%
    16:00 -1°C° 0 mm 2 m/s 744 mmHg 80%
    17:00 -1°C° 0 mm 2 m/s 745 mmHg 78%
    18:00 -2°C° 0 mm 2 m/s 745 mmHg 77%
    19:00 -2°C° 0 mm 3 m/s 745 mmHg 78%
    20:00 -4°C° 0 mm 3 m/s 746 mmHg 80%
    21:00 -4°C° 0 mm 4 m/s 746 mmHg 81%
    22:00 -4°C° 0 mm 4 m/s 746 mmHg 83%
    23:00 -4°C° 0 mm 4 m/s 746 mmHg 86%

    28 Martie, Joi

    Timp Temperatura Precipitaţii Vânt Presiune Umiditate
    00:00 -5°C° 0 mm 5 m/s 746 mmHg 88%
    01:00 -5°C° 0 mm 5 m/s 747 mmHg 89%
    02:00 -4°C° 0 mm 5 m/s 747 mmHg 90%
    03:00 -2°C° 0 mm 5 m/s 747 mmHg 91%
    04:00 -3°C° 0.1 mm 6 m/s 748 mmHg 90%
    05:00 -3°C° 0.1 mm 6 m/s 748 mmHg 89%
    06:00 -3°C° 0.1 mm 7 m/s 748 mmHg 88%
    07:00 -3°C° 0 mm 7 m/s 749 mmHg 86%
    08:00 -3°C° 0 mm 7 m/s 749 mmHg 85%
    09:00 -3°C° 0 mm 7 m/s 750 mmHg 84%
    10:00 -3°C° 0 mm 7 m/s 751 mmHg 84%
    11:00 -3°C° 0 mm 7 m/s 751 mmHg 83%
    12:00 -2°C° 0 mm 7 m/s 752 mmHg 83%
    13:00 -3°C° 0 mm 7 m/s 752 mmHg 82%
    14:00 -3°C° 0 mm 7 m/s 752 mmHg 80%
    15:00 -3°C° 0 mm 6 m/s 752 mmHg 79%
    16:00 -3°C° 0 mm 6 m/s 753 mmHg 77%
    17:00 -2°C° 0 mm 5 m/s 753 mmHg 75%
    18:00 -3°C° 0 mm 4 m/s 753 mmHg 74%
    19:00 -3°C° 0 mm 4 m/s 754 mmHg 74%
    20:00 -4°C° 0 mm 4 m/s 754 mmHg 75%
    21:00 -5°C° 0 mm 3 m/s 754 mmHg 75%
    22:00 -5°C° 0 mm 3 m/s 754 mmHg 76%
    23:00 -5°C° 0 mm 3 m/s 754 mmHg 77%

    29 Martie, Vineri

    Timp Temperatura Precipitaţii Vânt Presiune Umiditate
    00:00 -5°C° 0 mm 3 m/s 754 mmHg 78%
    01:00 -5°C° 0 mm 3 m/s 754 mmHg 77%
    02:00 -5°C° 0 mm 4 m/s 753 mmHg 76%
    03:00 -5°C° 0 mm 4 m/s 753 mmHg 75%
    04:00 -6°C° 0 mm 5 m/s 752 mmHg 76%
    05:00 -6°C° 0 mm 5 m/s 751 mmHg 76%
    06:00 -6°C° 0 mm 6 m/s 750 mmHg 77%
    07:00 -6°C° 0.1 mm 7 m/s 750 mmHg 78%
    08:00 -5°C° 0.1 mm 8 m/s 749 mmHg 79%
    09:00 -4°C° 0.1 mm 9 m/s 748 mmHg 81%
    10:00 -4°C° 0.5 mm 8 m/s 747 mmHg 83%
    11:00 -2°C° 0.5 mm 8 m/s 747 mmHg 86%
    12:00 -1°C° 0.5 mm 8 m/s 746 mmHg 89%
    13:00 -1°C° 0.1 mm 8 m/s 746 mmHg 84%
    14:00 -1°C° 0.1 mm 8 m/s 746 mmHg 80%
    15:00 0°C° 0.1 mm 8 m/s 746 mmHg 75%
    16:00 -1°C° 0 mm 7 m/s 747 mmHg 75%
    17:00 -1°C° 0 mm 6 m/s 747 mmHg 76%
    18:00 -1°C° 0 mm 5 m/s 748 mmHg 76%
    19:00 -2°C° 0 mm 4 m/s 748 mmHg 79%
    20:00 -2°C° 0 mm 4 m/s 749 mmHg 81%
    21:00 -2°C° 0 mm 3 m/s 750 mmHg 84%
    22:00 -2°C° 0 mm 3 m/s 750 mmHg 85%
    23:00 -3°C° 0 mm 2 m/s 750 mmHg 86%
    Arată mai mult